[[{"header":{"parameterUnit":"m.s-1","parameterCategory":1,"la1":30.2991,"la2":30.254,"lo1":-89.0895,"lo2":-89.0444,"dy":0.0017,"dx":0.0017,"nx":28,"ny":28,"refTime":"2023-07-30T09:00:00:Z","depth":0,"parameterNumber":2,"parameterNumberName":"U-component_of_WINDS"},"data":[0,0,0,0,0,0,0,0,0,0,0,0,0,0,0,0,0,0,0,0,0,0,0,0,0,0,0,0,0,0,0,0,0,0,0,0,0,0,0,0,0,0,0,0,0,0,0,0,0,0,0,0,0,0,0,0,0,0,-1.863,-1.8632,0,-1.8774,-1.8775,-1.8777,-1.8777,-1.8775,-1.8774,-1.8772,-1.8914,-1.892,-1.8925,0,0,0,0,0,0,0,0,0,0,0,0,0,-1.8354,-1.8359,-1.863,-1.8632,-1.8634,-1.8773,-1.8775,-1.8777,-1.8778,-1.8775,-1.8773,-1.8771,-1.8913,-1.8919,-1.8926,0,0,0,0,0,0,0,0,0,0,0,0,0,-1.8483,-1.8361,-1.863,-1.8651,-1.8654,-1.8773,-1.8775,-1.8778,-1.8778,-1.8775,-1.8773,-1.877,-1.891,-1.8918,-1.8927,-1.9033,0,0,-1.8952,-1.8955,0,0,0,0,0,0,0,0,-1.8476,-1.8493,-1.8646,-1.865,-1.8654,-1.8755,-1.873,-1.8863,-1.8779,-1.8731,-1.8772,-1.8769,-1.8863,-1.8875,-1.8908,-1.9039,-1.9045,-1.8953,-1.8958,-1.8961,-1.8963,0,0,0,0,0,0,0,-1.8467,-1.8487,-1.8687,-1.8648,-1.8653,-1.8652,-1.8668,-1.8755,-1.8811,-1.8735,-1.8735,-1.8753,-1.8865,-1.89,-1.8911,-1.9047,-1.8952,-1.896,-1.8965,-1.8968,-1.9273,-1.9276,0,0,0,0,0,0,-1.8454,-1.848,-1.8682,-1.8691,-1.8556,-1.866,-1.8677,-1.8725,-1.881,-1.882,-1.8755,-1.8752,-1.8887,-1.8902,-1.8916,-1.9046,-1.8961,-1.8969,-1.8974,-1.927,-1.9274,-1.9278,0,0,0,0,0,0,-1.8448,-1.8472,-1.8677,-1.8586,-1.8612,-1.8667,-1.8722,-1.8729,-1.8765,-1.8825,-1.8834,-1.8781,-1.8886,-1.8905,-1.9004,-1.9051,-1.8972,-1.898,-1.9267,-1.9271,-1.9276,-1.9307,0,0,0,0,0,0,-1.844,-1.847,-1.8512,-1.8587,-1.8617,-1.8763,-1.8725,-1.8734,-1.8779,-1.8777,-1.8852,-1.8861,-1.8885,-1.8992,-1.9012,-1.9061,-1.8986,-1.9263,-1.9269,-1.9274,-1.9302,-1.9312,-1.9321,0,0,0,0,0,-1.8431,-1.8513,-1.8514,-1.8538,-1.867,-1.8766,-1.8782,-1.8809,-1.8783,-1.8825,-1.8864,-1.8859,-1.9043,-1.9002,-1.9025,-1.9077,-1.926,-1.9267,-1.9274,-1.9297,-1.931,-1.932,0,0,0,0,0,0,-1.844,-1.8524,-1.8525,-1.8635,-1.8693,-1.8765,-1.8819,-1.8821,-1.8887,-1.8882,-1.8912,-1.8928,-1.9028,-1.9062,-1.9015,-1.9184,-1.9148,-1.916,-1.9158,-1.917,-1.918,-1.9169,-1.8993,0,0,0,0,0,-1.8456,-1.8528,-1.8596,-1.8686,-1.8716,-1.8763,-1.8805,-1.8821,-1.8882,-1.8907,-1.8953,-1.9011,-1.9082,-1.9128,-1.9197,-1.9307,-1.9323,-1.9354,-1.9364,-1.9371,-1.9381,-1.9442,-1.9456,-1.9301,-1.9301,-1.9301,0,0,-1.8487,-1.8542,-1.8585,-1.869,-1.8737,-1.881,-1.8783,-1.8861,-1.8916,-1.8918,-1.9015,-1.9051,-1.9118,-1.9224,-1.9272,-1.9256,-1.9428,-1.938,-1.9386,-1.9392,-1.9451,-1.9465,-1.9478,-1.9306,-1.9305,-1.9304,0,0,-1.8582,-1.8631,-1.8712,-1.876,-1.8833,-1.8864,-1.8883,-1.8956,-1.8981,-1.9079,-1.9082,-1.9147,-1.9269,-1.9317,-1.9357,-1.9473,-1.9471,-1.9494,-1.9543,-1.9602,-1.9614,-1.9625,-1.9666,-1.968,-1.9504,-1.9504,-1.9504,0,-1.8611,-1.8723,-1.8752,-1.8832,-1.8878,-1.8886,-1.8967,-1.9013,-1.9103,-1.9134,-1.9115,-1.9269,-1.9315,-1.9432,-1.946,-1.9493,-1.9515,-1.9485,-1.9611,-1.9622,-1.9633,-1.9672,-1.9687,-1.9506,-1.9506,-1.9506,-1.9506,0,-1.8756,-1.8833,-1.889,-1.8979,-1.9032,-1.9112,-1.9153,-1.9202,-1.9214,-1.9246,-1.9347,-1.9402,-1.9483,-1.9512,-1.9523,-1.9631,-1.9618,-1.9605,-1.9568,-1.9649,-1.9686,-1.9702,-1.951,-1.9509,-1.9508,-1.9507,0,0,-1.8858,-1.8965,-1.8985,-1.9027,-1.9109,-1.9169,-1.9249,-1.933,-1.9371,-1.9434,-1.9502,-1.9606,-1.9594,-1.964,-1.9657,-1.9709,-1.9797,-1.9689,-1.9691,-1.9707,-1.9919,-1.9928,-1.9945,-1.9797,-1.98,-1.9802,-1.9913,0,-1.8961,-1.9106,-1.9136,-1.9261,-1.9333,-1.9342,-1.9413,-1.947,-1.9503,-1.9568,-1.9604,-1.9677,-1.9656,-1.9684,-1.9736,-1.9775,-1.984,-1.9768,-1.9859,-1.9862,-1.9841,-1.9964,-1.9974,-2.0075,-1.9928,-1.993,-1.9932,0,-1.91,-1.9169,-1.9302,-1.9376,-1.9407,-1.9469,-1.9546,-1.9609,-1.9674,-1.9694,-1.9747,-1.9759,-1.9842,-1.9803,-1.9918,-1.9868,-1.9908,-1.9933,-1.9937,-1.9946,-1.9901,-1.9975,-2.0108,-2.0123,-1.9955,-1.9953,-1.9952,0,-1.9161,-1.9287,-1.9383,-1.9418,-1.9506,-1.955,-1.9589,-1.9652,-1.9699,-1.9766,-1.9796,-1.9871,-1.9912,-1.9969,-2.0001,-1.997,-2.0113,-2.0077,-2.0131,-2.0131,-2.016,-2.0157,-2.03,-2.0187,-2.0187,-2.0187,-2.0186,0,-1.9272,-1.9353,-1.9412,-1.947,-1.9561,-1.9595,-1.9683,-1.9721,-1.9777,-1.9843,-1.9855,-1.9916,-1.9955,-2.0021,-2.0047,-2.0138,-2.0156,-2.0174,-2.018,-2.0172,-2.017,-2.0197,-2.0191,-2.0191,-2.019,-2.0189,-2.0188,0,-1.9355,-1.9397,-1.9503,-1.9579,-1.96,-1.9663,-1.9728,-1.9785,-1.9819,-1.9902,-1.9924,-1.9977,-2.0056,-2.0094,-2.0191,-2.0208,-2.0311,-2.0312,-2.0289,-2.0291,-2.0343,-2.0337,-2.0507,-2.0531,-2.0403,-2.0404,-2.0405,0,-1.9422,-1.9485,-1.9569,-1.9615,-1.9655,-1.9729,-1.9778,-1.9814,-1.9863,-1.9944,-1.9991,-2.0071,-2.0137,-2.0262,-2.0308,-2.0383,-2.0386,-2.044,-2.0397,-2.0388,-2.0385,-2.0381,-2.0387,-2.0447,-2.0449,-2.045,-2.045,0,-1.9537,-1.9556,-1.9626,-1.9705,-1.9764,-1.9827,-1.9889,-1.9925,-1.9971,-2.0026,-2.0108,-2.016,-2.0261,-2.0339,-2.0418,-2.0456,-2.0461,-2.0464,-2.0481,-2.0473,-2.0457,-2.0465,-2.0309,-2.046,-2.0459,-2.0458,-2.0458,-2.0457,-1.9613,-1.967,-1.9739,-1.9817,-1.9868,-1.9927,-1.9984,-2.0027,-2.0097,-2.0182,-2.0199,-2.0286,-2.0351,-2.0457,-2.0498,-2.0566,-2.0553,-2.0577,-2.0583,-2.0588,-2.059,-2.0448,-2.058,-2.058,-2.058,-2.058,-2.058,0,-1.9728,-1.9774,-1.9846,-1.9934,-1.9995,-1.9998,-2.0067,-2.0118,-2.0195,-2.0255,-2.0321,-2.0415,-2.0493,-2.0546,-2.0624,-2.0668,-2.0672,-2.0687,-2.0683,-2.0692,-2.0598,-2.0575,-2.0683,-2.0683,-2.0682,-2.0682,-2.0682,-2.0682,-1.9795,-1.9891,-1.9918,-2.0039,-2.0084,-2.0171,-2.021,-2.0263,-2.0312,-2.0418,-2.0483,-2.0518,-2.0576,-2.0659,-2.073,-2.0743,-2.0771,-2.0786,-2.0799,-2.0709,-2.0699,-2.0688,-2.0667,-2.0792,-2.0792,-2.0888,-2.0889,-2.0889]},{"header":{"parameterUnit":"m.s-1","parameterCategory":1,"la1":30.2991,"la2":30.254,"lo1":-89.0895,"lo2":-89.0444,"dy":0.0017,"dx":0.0017,"nx":28,"ny":28,"refTime":"2023-07-30T09:00:00:Z","depth":0,"parameterNumber":3,"parameterNumberName":"V-component_of_WINDS"},"data":[0,0,0,0,0,0,0,0,0,0,0,0,0,0,0,0,0,0,0,0,0,0,0,0,0,0,0,0,0,0,0,0,0,0,0,0,0,0,0,0,0,0,0,0,0,0,0,0,0,0,0,0,0,0,0,0,0,0,-2.9435,-2.9436,0,-2.9471,-2.9471,-2.9471,-2.9444,-2.9443,-2.9442,-2.944,-2.9474,-2.9475,-2.9477,0,0,0,0,0,0,0,0,0,0,0,0,0,-2.9341,-2.9343,-2.9435,-2.9436,-2.9436,-2.9471,-2.9471,-2.9472,-2.9444,-2.9443,-2.9441,-2.944,-2.9473,-2.9475,-2.9478,0,0,0,0,0,0,0,0,0,0,0,0,0,-2.9379,-2.9343,-2.9435,-2.9427,-2.9426,-2.9471,-2.9471,-2.9472,-2.9444,-2.9443,-2.9441,-2.9439,-2.9472,-2.9475,-2.9478,-2.9531,0,0,-2.9487,-2.9488,0,0,0,0,0,0,0,0,-2.9377,-2.9383,-2.9428,-2.9427,-2.9427,-2.9451,-2.945,-2.9492,-2.9445,-2.9437,-2.944,-2.9438,-2.9467,-2.9471,-2.9481,-2.9533,-2.9534,-2.9487,-2.9489,-2.949,-2.9491,0,0,0,0,0,0,0,-2.9375,-2.9381,-2.9449,-2.9428,-2.9428,-2.942,-2.9424,-2.9458,-2.9462,-2.9438,-2.9436,-2.9441,-2.9467,-2.9478,-2.9481,-2.9535,-2.9487,-2.949,-2.9492,-2.9493,-2.9631,-2.9633,0,0,0,0,0,0,-2.9373,-2.9379,-2.9448,-2.945,-2.9397,-2.9423,-2.9427,-2.9445,-2.9461,-2.9462,-2.9442,-2.9439,-2.9474,-2.9478,-2.9483,-2.9546,-2.949,-2.9493,-2.9495,-2.963,-2.9632,-2.9634,0,0,0,0,0,0,-2.9371,-2.938,-2.9447,-2.9414,-2.9422,-2.9427,-2.9447,-2.9447,-2.9458,-2.9465,-2.9465,-2.9453,-2.9473,-2.9478,-2.9519,-2.9547,-2.9494,-2.9497,-2.9627,-2.963,-2.9633,-2.9673,0,0,0,0,0,0,-2.9369,-2.9379,-2.94,-2.9415,-2.9424,-2.9484,-2.9449,-2.9449,-2.9464,-2.946,-2.9475,-2.9476,-2.9472,-2.9515,-2.9522,-2.955,-2.9499,-2.9625,-2.9629,-2.9632,-2.9669,-2.9677,-2.9683,0,0,0,0,0,-2.9365,-2.941,-2.9402,-2.941,-2.9451,-2.9486,-2.9491,-2.9486,-2.9466,-2.9487,-2.9491,-2.9475,-2.9542,-2.952,-2.9528,-2.9556,-2.9623,-2.9628,-2.9632,-2.9666,-2.9675,-2.9683,0,0,0,0,0,0,-2.9397,-2.9412,-2.9403,-2.9453,-2.9469,-2.9481,-2.9507,-2.9496,-2.9517,-2.9513,-2.9505,-2.9509,-2.9552,-2.9558,-2.9532,-2.9608,-2.9579,-2.9585,-2.9603,-2.9612,-2.9619,-2.9616,-2.9502,0,0,0,0,0,-2.941,-2.9439,-2.9449,-2.9493,-2.9501,-2.9503,-2.9518,-2.9513,-2.9528,-2.9534,-2.9541,-2.9556,-2.958,-2.9596,-2.9619,-2.967,-2.9672,-2.9693,-2.97,-2.9706,-2.9711,-2.9738,-2.9747,-2.9648,-2.9648,-2.9648,0,0,-2.9437,-2.9449,-2.9467,-2.9499,-2.9511,-2.9539,-2.9509,-2.954,-2.956,-2.9539,-2.9578,-2.9584,-2.9599,-2.9645,-2.9666,-2.9652,-2.9739,-2.9712,-2.9716,-2.9718,-2.9743,-2.9753,-2.9761,-2.9651,-2.965,-2.965,0,0,-2.9501,-2.9513,-2.955,-2.9562,-2.958,-2.9581,-2.959,-2.9604,-2.9607,-2.9647,-2.9631,-2.9655,-2.9697,-2.9709,-2.972,-2.9787,-2.9774,-2.9795,-2.9832,-2.9858,-2.9866,-2.9872,-2.9896,-2.9905,-2.98,-2.98,-2.98,0,-2.9532,-2.9576,-2.9571,-2.9603,-2.9618,-2.96,-2.9637,-2.9649,-2.9673,-2.9682,-2.9666,-2.9718,-2.9728,-2.9776,-2.9792,-2.9802,-2.9812,-2.9793,-2.9865,-2.9872,-2.9878,-2.99,-2.9909,-2.9803,-2.9802,-2.9802,-2.9802,0,-2.9612,-2.9643,-2.967,-2.9695,-2.9712,-2.9747,-2.9746,-2.9764,-2.9758,-2.976,-2.98,-2.981,-2.9834,-2.9845,-2.9839,-2.9893,-2.9883,-2.9866,-2.9837,-2.989,-2.9911,-2.992,-2.9806,-2.9805,-2.9805,-2.9804,0,0,-2.9698,-2.9719,-2.9729,-2.974,-2.9758,-2.9781,-2.9814,-2.9838,-2.9854,-2.987,-2.9897,-2.9933,-2.9918,-2.9931,-2.9925,-2.9948,-3.0,-2.9928,-2.9928,-2.9941,-3.0059,-3.0071,-3.0082,-2.9991,-2.9993,-2.9994,-3.0057,0,-2.9762,-2.9821,-2.9818,-2.9873,-2.99,-2.9883,-2.9912,-2.9925,-2.9928,-2.9951,-2.9953,-2.9979,-2.9956,-2.9964,-2.9986,-2.9989,-3.0024,-2.9985,-3.0015,-3.0016,-3.0012,-3.0092,-3.0106,-3.0165,-3.0066,-3.0067,-3.0068,0,-2.9845,-2.9866,-2.9924,-2.9938,-2.9949,-2.9975,-2.9997,-3.0019,-3.0033,-3.0033,-3.0048,-3.0038,-3.0071,-3.0041,-3.0085,-3.0058,-3.007,-3.0074,-3.0076,-3.0078,-3.0045,-3.0097,-3.0184,-3.0193,-3.0081,-3.008,-3.0079,0,-2.9901,-2.9943,-2.9983,-2.9993,-3.001,-3.0028,-3.0036,-3.0049,-3.0064,-3.0082,-3.0092,-3.0113,-3.0125,-3.0142,-3.0138,-3.0117,-3.0183,-3.0153,-3.0183,-3.0183,-3.0197,-3.0197,-3.0288,-3.0206,-3.0206,-3.0206,-3.0205,0,-2.9973,-3.0009,-3.0008,-3.0033,-3.0073,-3.0067,-3.0106,-3.0112,-3.0123,-3.0147,-3.0134,-3.0157,-3.0151,-3.0173,-3.017,-3.0207,-3.0212,-3.0212,-3.0211,-3.0214,-3.0214,-3.0221,-3.0217,-3.0208,-3.0207,-3.0207,-3.0207,0,-3.0042,-3.0043,-3.0086,-3.0098,-3.0102,-3.0131,-3.0141,-3.0164,-3.0165,-3.0196,-3.0203,-3.0205,-3.0231,-3.0229,-3.0257,-3.0255,-3.03,-3.0294,-3.0296,-3.0294,-3.0324,-3.0321,-3.0424,-3.0437,-3.0347,-3.0347,-3.0348,0,-3.0088,-3.0116,-3.0131,-3.0147,-3.0156,-3.0182,-3.0197,-3.0193,-3.0209,-3.0227,-3.0247,-3.0272,-3.0291,-3.0333,-3.0336,-3.0358,-3.0352,-3.0386,-3.0355,-3.0356,-3.0352,-3.035,-3.0352,-3.0392,-3.0393,-3.0394,-3.0395,0,-3.0169,-3.0169,-3.0192,-3.0215,-3.0233,-3.0251,-3.0267,-3.028,-3.0277,-3.0296,-3.0322,-3.0337,-3.0367,-3.0391,-3.0411,-3.0418,-3.0406,-3.0404,-3.0412,-3.0415,-3.0415,-3.0415,-3.0312,-3.0402,-3.0401,-3.0401,-3.04,-3.04,-3.0228,-3.0252,-3.0266,-3.0292,-3.0304,-3.0319,-3.0341,-3.0345,-3.0367,-3.0392,-3.0387,-3.0417,-3.0429,-3.0456,-3.0464,-3.0486,-3.0474,-3.0486,-3.0489,-3.0492,-3.0495,-3.0411,-3.049,-3.049,-3.049,-3.0489,-3.0489,0,-3.0308,-3.0317,-3.0341,-3.0364,-3.0384,-3.0371,-3.0388,-3.0405,-3.0432,-3.0445,-3.0465,-3.0495,-3.0518,-3.0523,-3.0545,-3.0562,-3.0557,-3.0568,-3.0566,-3.0568,-3.0505,-3.0496,-3.0572,-3.0572,-3.0572,-3.0572,-3.0571,-3.0571,-3.0353,-3.0391,-3.0392,-3.0436,-3.0444,-3.0474,-3.0484,-3.0498,-3.0508,-3.0543,-3.0562,-3.0566,-3.0575,-3.0598,-3.0618,-3.0619,-3.0628,-3.0641,-3.0639,-3.0581,-3.0572,-3.0564,-3.0556,-3.0643,-3.0643,-3.07,-3.0701,-3.0701]}]]